www.pogodaiklimat.ru
ПОГОДА в Округе Мартин
Время
и дата
12:35 01.03
12:55 01.03
13:15 01.03
13:35 01.03
13:55 01.03
14:15 01.03
14:35 01.03
14:55 01.03
15:15 01.03
15:35 01.03
15:55 01.03
16:15 01.03
16:35 01.03
16:55 01.03
17:15 01.03
17:35 01.03
17:55 01.03
18:15 01.03
18:35 01.03
18:55 01.03
19:15 01.03
19:35 01.03
19:55 01.03
20:15 01.03
20:35 01.03
20:55 01.03
21:15 01.03
21:35 01.03
21:55 01.03
22:15 01.03
22:35 01.03
22:55 01.03
23:15 01.03
23:35 01.03
23:55 01.03
00:15 02.03
00:35 02.03
00:55 02.03
01:15 02.03
01:35 02.03
01:55 02.03
02:15 02.03
02:35 02.03
02:55 02.03
03:15 02.03
03:35 02.03
03:55 02.03
04:15 02.03
Ветер
(напр.,м/с)
Видим. Явления Облачность Т
(С)
Тd
(С)
f
(%)
Тe
(С)
Тes
(С)
Комфортность P
(гПа)
Po
(гПа)
Тmin
(С)
Tmax
(С)
R
(мм)
R24
(мм)
S
(см)
ЮВ 2 16 км 10/0 2700 m
[Ac]
+10.0 -3.5 38 +9 +12 981.2
ЮВ 2 16 км слабый дождь 10/0 2550 m
[Ac As]
+10.2 -2.1 42 +9 +12 980.8 -1.5 +10.4
ЮВ 3 16 км дождь 10/0 2250 m
[Ac As]
+9.8 -1.3 46 +8 +11 980.5
Ю 4 16 км слабая морось 10/0 2250 m
[Ac]
+10.0 -2.6 41 +8 +10 980.2
Ю 5
{8}
16 км 10/8 1950 m
[Ac]
+10.5 -2.9 39 +8 +8 980.2
Ю 6
{8}
16 км 10/8 1500 m
[Ac]
+10.0 +1.1 54 +7 +7 979.9
Ю 3 6 км дождь 10/10 870 m
[Ns]
+7.5 +4.2 80 +5 +5 979.9
ЮВ 3 11 км морось 10/10 960 m
[St]
+6.8 +5.0 88 +4 +4 979.9
ЮВ 2 8 км сильная морось 10/10 1350 m
[St]
+6.7 +5.7 93 +4 +4 979.5
В 2 16 км слабая морось 10/10 1500 m
[St]
+6.7 +6.0 95 +4 +4 978.9
В 2 16 км 10/10 1500 м +6.5 +5.9 96 +4 +4 978.9
В 3 16 км 10/10 1500 м +6.5 +6.2 98 +3 +3 978.6
В 3 16 км 10/10 1440 м +6.7 +5.9 95 +3 +3 978.2
В 2 16 км 10/10 1320 м +6.8 +6.0 95 +4 +4 978.2
В 3 16 км 10/10 1320 м +6.6 +5.7 94 +3 +3 977.9
В 2 16 км 10/10 1320 м +6.6 +5.2 91 +4 +4 977.9
В 2 16 км 10/10 1320 м +6.6 +5.1 90 +4 +4 977.9
В 2 16 км 10/10 1140 м +6.6 +5.1 90 +4 +4 977.9
В 3 16 км 10/10 1200 м +6.8 +5.0 88 +4 +4 977.9
В 2 16 км 10/10 1200 м +6.8 +5.0 88 +5 +5 977.6 +6.5 +10.5
В 2 16 км 10/10 1260 м +7.0 +5.0 87 +5 +5 977.6
В 2 16 км 10/10 1380 м +7.1 +5.0 86 +5 +5 977.9
В 3 16 км 10/10 1500 м +7.5 +5.0 84 +5 +5 977.6
ЮВ 2 16 км 10/10 1800 м +7.5 +5.1 85 +5 +5 977.6
ЮВ 3 16 км 10/10 1800 м +7.7 +5.0 83 +5 +5 977.3
ЮВ 3 16 км 10/10 1800 м +8.0 +5.1 82 +5 +5 977.3
ЮВ 4 16 км 10/10 1800 м +8.7 +5.3 79 +6 +6 977.3
ЮВ 4 16 км 10/10 1500 м +9.0 +5.5 79 +6 +6 977.3
ЮВ 3 16 км 10/10 1500 м +9.1 +5.6 79 +7 +7 976.9
ЮВ 3 16 км 10/10 1500 м +9.5 +5.7 77 +7 +7 976.9
ЮВ 4 16 км 10/10 1440 м +9.5 +5.8 78 +7 +7 976.6
ЮВ 4 16 км 10/8 840 m
[Ac]
+9.7 +6.0 78 +7 +7 976.3
Ю 4 16 км слабый дождь 10/8 1200 m
[Ac Ns]
+10.1 +6.5 78 +8 +8 976.3
Ю 5 16 км 10/10 1200 м +10.5 +6.5 76 +8 +8 976.3
Ю 5
{7}
16 км 10/10 1140 м +10.6 +7.0 78 +8 +8 976.0
ЮВ 5 16 км 10/10 1200 м +10.7 +7.2 79 +8 +8 976.0
Ю 3 16 км слабый дождь 10/10 990 m
[Ns]
+11.0 +7.2 77 +9 +9 976.3
штиль 0 16 км дождь 10/10 1020 m
[Ns]
+10.1 +8.0 87 +9 +9 976.3 +6.8 +11.0
Ю 3 6 км дождь 10/10 1050 m
[Ns]
+9.8 +8.6 92 +7 +7 976.3
штиль 0 11 км дождь 10/10 930 m
[Ns]
+9.5 +9.1 97 +9 +9 976.3
Ю 2 16 км слабый дождь 10/10 990 m
[Ns]
+9.5 +9.3 99 +8 +8 976.3
ЮВ 2 16 км слабый дождь 10/10 990 m
[Ns]
+9.3 +9.3 100 +7 +7 976.0
В 2 16 км слабая морось 10/10 990 m
[St]
+9.1 +9.1 100 +7 +7 975.7
ЮВ 2 16 км слабый дождь 10/10 990 m
[Ns]
+9.1 +9.1 100 +7 +7 975.7
штиль 0 16 км дождь 10/10 930 m
[Ns]
+9.1 +9.1 100 +8 +8 975.7
штиль 0 11 км дождь 10/10 930 m
[Ns]
+9.0 +9.0 100 +8 +8 975.7
штиль 0 16 км слабая морось 10/10 930 m
[St]
+9.0 +9.0 100 +8 +8 975.7
штиль 0 16 км слабый дождь 10/10 900 m
[Ns]
+9.0 +9.0 100 +8 +8 975.7
Местоположение метеостанции Big Sandy Regional Airport: широта 37.7510 долгота -82.6367 высота над уровнем моря 372 м.
В архиве по умолчанию представлена погода в Округе Мартин за последние 1-2 суток. Обновление информации о фактической погоде в базе происходит ежечасно! Архивные данные за месяц целиком и за предыдущие месяцы Вы можете получить, выбрав интересующий диапазон дат из раскрывающегося списка и нажав кнопку "Ввод!".
Внимание! Архив погоды МЕТАР в базе сайта по станциям, не включенным в климатический монитор, хранится не более 60 дней. Нет смысла пытаться выбрать более раннюю дату.
*Определитесь, кто Вы:
Внимание! Время в таблицах - местное (без учета летнего времени). Для получения всемирного времени необходимо вычесть поправку, которая равна -5 ч.
Смотрите также архив погоды в соседних городах и на ближайших метеорологических станциях:
Партнеры нашего сайта:      
Пояснения к столбцам:
  • Ветер - указаны скорость ветра в м/с - средняя за 10 мин, порывы в срок и между сроками (в фигурных скобках) и направление, откуда дует ветер: С - северный,
  • СВ - северо-восточный, В - восточный, ЮВ - юго-восточный, Ю - южный, ЮЗ - юго-западный, З - западный, СЗ - северо-западный.
  • Видимость - горизонтальная дальность видимости в метрах или километрах. При видимости от 1 до 10 км при отсутствии осадков обычно наблюдается дымка, при ухудшении видимости до 1 км и менее - туман. В сухую погоду видимость может ухудшаться дымом, пылью или мглою.
  • Явления - указаны атмосферные явления, наблюдавшиеся в срок или в последний час перед сроком; фигурными скобками обозначены явления, наблюдавшиеся между сроками (за 1-3 часа до срока); квадратными скобками обозначены град или гололедные отложения с указанием их диаметра в мм.
  • Облачность - указаны через наклонную черту общая и нижняя облачность в баллах и высота нижней границы облаков в метрах; квадратными скобками обозначены формы облаков: Ci - перистые, Cs - перисто-слоистые, Cc - перисто-кучевые, Ac - высококучевые, As - высокослоистые, Sc - слоисто-кучевые, Ns - слоисто-дождевые, Cu - кучевые, Cb - кучево-дождевые. Подробнее классификацию облаков см. в Атласе облаков (PDF).
  • T - Температура воздуха - температура, измеренная на высоте 2 м над землей.
  • Td - Температура точки росы - температура, при понижении до которой содержащийся в воздухе водяной пар достигнет насыщения.
  • f - Относительная влажность воздуха - влажноcть воздуха, измеренная на высоте 2 м над землей.
  • Te - Эффективная температура - температура, которую ощущает одетый по сезону человек в тени. Характеристика душности погоды. При расчете учитывается влияние влажности воздуха и скорости ветра на теплоощущения человека.
  • Tes - Эффективная температура на солнце - температура, которую ощущает человек, с поправкой на солнечный нагрев. Характеристика знойности погоды. Зависит от высоты солнца над горизонтом, облачности и скорости ветра. Ночью, в пасмурную погоду, а также при ветре 12 м/с и более поправка равна нулю.
  • P - Атмосферное давление - приведенное к уровню моря атмосферное давление.
  • Po - Атмосферное давление - измеренное на уровне метеостанции атмосферное давление.
  • Tmin - Минимальная температура - минимум температуры воздуха на высоте 2 м над землей.
  • Tmax - Максимальная температура - максимум температуры воздуха на высоте 2 м над землей.
  • R - Количество осадков - Количество выпавших осадков за период времени, мм. При наведении курсора мыши на число - период времени, за который выпало указанное количество осадков.
  • R24 - Количество осадков - Количество выпавших осадков за 24 часа, мм.
  • S - Снежный покров - Высота снежного покрова, см. При наведении курсора мыши на число - состояние снежного покрова и степень покрытия местности в баллах.